Погода в Колохте

Россия / Костромская область     59°02′22″N   44°04′55″E
темп.,
°C
ветер,
м/с
пор.,
м/с
влажн.,
%
обл.,
%
осадки,
мм/ч
давл.,
гПа
погр.,
м
15 апреля, чт
чт1500:00+10ююз3128569 0.0 1018267
03:00+7з2289100 0.0 101916
06:00+8ссв3895100 0.0 1020361
09:00+8ссв4887100 0.0 1021509
12:00+7ссв5982100 0.0 1023680
15:00+6св41082100 0.0 1025637
18:00+5св3982100 0.1 1026451
21:00+5св4127688 0.1 1027567
16 апреля, пт
пт1600:00+2св4127161 0.0 1028422
03:000св312805 0.0 1029307
06:000всв312779 0.0 1030383
09:00+6всв47515 0.0 1030750
12:00+9всв45401 0.0 10301109
15:00+11св45370 0.0 10291259
18:00+9св37491 0.0 1029298
21:00+4св26682 0.0 1031104
17 апреля, сб
сб1700:00+2св25751 0.0 103193
03:00+1св24790 0.0 103280
06:00+1св26760 0.0 1033156
09:00+7св35560 0.0 1032723
12:00+10св34465 0.0 10311516
15:00+11ссв35405 0.0 10301647
18:00+9ссв25515 0.0 1030178
21:00+5ссв25690 0.0 103086
18 апреля, вс
вс1800:00+3с24760 0.0 103177
03:00+2с27820 0.0 1031136
06:00+2с29830 0.0 1031263
09:00+7ссв46615 0.0 1031831
12:00+10ссв464871 0.0 10311690
15:00+7св565887 0.0 10331317
18:00+7ссв255293 0.0 1033728
21:00+3всв395798 0.0 1035281
19 апреля, пн
пн1900:000в276728 0.0 1037148
03:00−1вюв24682 0.0 103874
06:000вюв25621 0.0 1039151
09:00+5юв23390 0.0 1039979
12:00+8юв22325 0.0 10381627
15:00+9юв22315 0.0 10371677
18:00+7юв23435 0.0 103678
21:00+2ююв23585 0.0 103755